Voltar ao catálogo

CZ-6A DEB

AtivoPO
NORAD 61268·DEBRIS·🇨🇳 China

Lançado Aug 6, 2024 de Taiyuan Satellite Launch Center

Loading…

Próximas Passagens (próximas 24 horas)

TLE

AtualizadoSource: Space-Track

Época: Sep 14, 2026, 11:50 UTC

1 61268U 24140SD  26257.49332399  .00002798  00000-0  14650-2 0  9992
2 61268  88.9957 266.1386 0121025 332.6172  26.8667 14.10389873105340

Acompanhe CZ-6A DEB em tempo real com AllMySat

Download on the App Store